Regional Weather Roundup
Issued by NWS

Home | Current Version | Previous Version | Graphics & Text | Print | Product List | Glossary On
Versions: 1 2 3 4 5 6 7 8 9 10 11 12 13 14 15 16 17 18 19 20 21 22 23 24 25 26 27 28 29 30 31 32 33 34 35 36 37 38 39 40 41 42 43 44 45 46 47 48 49 50
000
ASUS43 KLOT 240010
RWRIL

ILLINOIS REGIONAL WEATHER ROUNDUP
NATIONAL WEATHER SERVICE CHICAGO/ROMEOVILLE IL
700 PM CDT WED APR 23 2014

NOTE: "FAIR" INDICATES FEW OR NO CLOUDS BELOW 12,000 FEET WITH NO
SIGNIFICANT WEATHER AND/OR OBSTRUCTIONS TO VISIBILITY.

* THESE STATIONS ARE NOT UNDER NWS QUALITY CONTROL. THEY ALSO MAY NOT
  REPORT WEATHER SUCH AS PRECIPITATION OR FOG.

ILZ001-002-007-009-015-016-024-240100-
NORTHWEST ILLINOIS

CITY           SKY/WX    TMP DP  RH WIND       PRES   REMARKS
MOLINE         LGT RAIN  48  41  76 SE8       30.01S
6HR MIN TEMP:  48; 6HR MAX TEMP:  58; 6HR PCP:  0.09;

STERLING*      CLOUDY    54  34  47 E16       30.02F
SAVANNA*       LGT RAIN  53  32  44 E10       30.00F
$$

ILZ003-004-008-010-011-017-018-240100-
NORTH CENTRAL ILLINOIS

CITY           SKY/WX    TMP DP  RH WIND       PRES   REMARKS
ROCKFORD       CLOUDY    52  25  35 SE10      30.09F
6HR MIN TEMP:  52; 6HR MAX TEMP:  57;

FREEPORT*      CLOUDY    51  25  36 E14       30.06F
ROCHELLE*      CLOUDY    53  26  36 E10       30.07F
DE KALB*       CLOUDY    49  26  40 E9        30.09S
PERU*          CLOUDY    56  29  36 CALM      30.06F
$$

ILZ005-006-012>014-019>023-240100-
NORTHEAST ILLINOIS

CITY           SKY/WX    TMP DP  RH WIND       PRES   REMARKS
CHICAGO-OHARE  CLOUDY    44  20  38 E8        30.11F
6HR MIN TEMP:  44; 6HR MAX TEMP:  51;

CHICAGO-MIDWAY CLOUDY    45  24  43 E10       30.11F
6HR MIN TEMP:  45; 6HR MAX TEMP:  51;

AURORA         CLOUDY    50  26  39 NE10      30.09F
6HR MIN TEMP:  50; 6HR MAX TEMP:  56;

LANSING*       CLOUDY    41  25  53 NE8       30.12F
JOLIET*        CLOUDY    48  26  41 NE10      30.11S
WAUKEGAN       CLOUDY    40  19  43 NE6       30.12F
6HR MIN TEMP:  40; 6HR MAX TEMP:  45;

DUPAGE AIRPORT CLOUDY    47  24  40 E8        30.10F
6HR MIN TEMP:  47; 6HR MAX TEMP:  54;

KANKAKEE*      CLOUDY    49  32  51 NE7       30.10S
WHEELING       CLOUDY    42  20  41 E8        30.13F
6HR MIN TEMP:  42; 6HR MAX TEMP:  49;

MORRIS*        CLOUDY    53  23  31 E9        30.09S
ROMEOVILLE*    CLOUDY    47  24  41 E9        30.10S
NORTHERLY ISL    N/A     40  26  58 NE13        N/A
$$

LMZ740>746-240100-
SOUTHERN LAKE MICHIGAN

STATION/POSITION SKY/WX   TEMP    WIND        PRES    VSBY  WAVE
                          AIR SEA DIR/SP/G                  HT/PER
                          (F)     (DEG/KT/KT) (MB)    (MI)  (FT/S)
WAUKEGAN HARBOR            39      30/  7/ 10 1021.7S
HARRISON CRIB              38      20/  9/ 11   N/A
BURNHAM HARBOR             40      30/  9/ 11   N/A
CALUMET HARBOR             39      20/  9/ 11 1021.0F
MICHIGAN CITY              38      10/ 10/ 12   N/A
$$

ILZ025>027-034>036-040-047-049-050-058-095>099-240100-
WEST-CENTRAL ILLINOIS

CITY           SKY/WX    TMP DP  RH WIND       PRES   REMARKS
QUINCY         CLOUDY    59  33  37 SE16      29.96F
GALESBURG*     CLOUDY    50  41  71 E10       29.99F
MACOMB*        CLOUDY    53  41  62 E10       30.01F
JACKSONVILLE*  CLOUDY    60  29  30 E12       30.00F
PITTSFIELD*    CLOUDY    59  34  39 E8        30.00F
$$

ILZ028>032-037-038-041>044-048-051>054-059>061-240100-
CENTRAL ILLINOIS

CITY           SKY/WX    TMP DP  RH WIND       PRES   REMARKS
PONTIAC        CLOUDY    57  28  33 E9        30.07S
BLOOMINGTON    LGT RAIN  53  36  52 E12       30.05F
DECATUR        CLOUDY    60  27  28 E9        30.04F
PEORIA         CLOUDY    55  37  50 E8        30.03F
6HR MIN TEMP:  54; 6HR MAX TEMP:  63; 6HR PCP:  0.02;

LACON*         LGT RAIN  54  34  46 E12       30.02F
LINCOLN*       CLOUDY    60  28  29 E7        30.00F
SPRINGFIELD    CLOUDY    61  28  28 E8        30.01F
6HR MIN TEMP:  58; 6HR MAX TEMP:  64; 6HR PCP: TRACE;

TAYLORVILLE    CLOUDY    59  28  31 E10       30.01F
$$

ILZ033-039-045-046-055>057-062-063-240100-
EAST-CENTRAL ILLINOIS

CITY           SKY/WX    TMP DP  RH WIND       PRES   REMARKS
CHAMPAIGN      CLOUDY    60  27  28 E3        30.06S
RANTOUL*       CLOUDY    61  25  25 CALM      30.07S
MATTOON        CLOUDY    59  27  29 E5        30.05R
PARIS*         CLOUDY    60  33  36 CALM      30.06S
$$

ILZ079-100>102-240100-
SOUTHWEST ILLINOIS

CITY           SKY/WX    TMP DP  RH WIND       PRES   REMARKS
ALTON          PTCLDY    59  34  38 E9        29.99F
BELLEVILLE     CLOUDY    62  36  38 E6        29.98F
CAHOKIA*       CLOUDY    62  38  40 SE8       29.98F
SPARTA*        MOCLDY    61  36  39 E9        30.00F
$$

ILZ064>066-069>071-074>076-080>082-084>086-088>090-092>094-240100-
SOUTH-CENTRAL ILLINOIS

CITY           SKY/WX    TMP DP  RH WIND       PRES   REMARKS
CARBONDALE     PTCLDY    62  39  42 E10       29.99F
6HR MIN TEMP:  62; 6HR MAX TEMP:  67;

CAIRO*         CLEAR     69  34  27 E7        29.98F
MARION         PTCLDY    64  34  32 E6        30.01F
MT. VERNON     CLOUDY    61  32  33 NE6       30.03S
CENTRALIA*     CLOUDY    61  33  34 E8        30.02S
SALEM*         CLOUDY    62  32  31 NE7       30.03S
METROPOLIS*    CLEAR     66  26  22 NE5       29.99S
$$

ILZ067-068-072-073-078-083-087-091-240100-
SOUTHEAST ILLINOIS

CITY           SKY/WX    TMP DP  RH WIND       PRES   REMARKS
FLORA*         PTCLDY    60  32  34 NE7       30.04S
FAIRFIELD*     MOCLDY    61  36  39 E6        30.03S
HARRISBURG*    PTCLDY    62  33  33 E7        30.03F
ROBINSON*      MOCLDY    60  38  44 NE5       30.06S
CARMI*         CLEAR     61  40  46 NE6       30.02F
$$

ABBREVIATIONS USED IN REMARKS
   TC - TEMPERATURE IN CELSIUS
  WCI - WIND CHILL INDEX
   HX - HEAT INDEX
  VSB - VISIBILITY
$$




USA.gov is the U.S. government's official web portal to all federal, state and local government web resources and services.